Climatologie pour Saint-Brevin les Pins
 
Jour • Résumé pour mai 25, 2018 Système :  Métrique    Anglais   Mixte
« - 1 jour
+ 1 jour »
Jour Semaine Mois Année Personnalisé
  Actuellement : Maximum : Minimum : Moyenne :
Température sous abri : -6.8 °C -17.8 °C -10.8 °C -9.4 °C
Point de rosée : -8.2 °C -17.8 °C -11.3 °C -10.2 °C
Humidité : 85 % Humidity % 85 % 91 %
Vitesse du vent : 0 km/h 0 km/h 0 km/h 4.8 km/h
Rafale : 15.6 km/h 0 km/h - -
Direction :Calm - - East
Pression : 34384.8 hPa 0 hPa 34371.3 hPa -
Précipitations : 0 mm      
Historical Graphs
 
 
Tableau de données pour mai 25, 2018
Heure Tempé Pt rosée Pression Vent Vitesse Rafale Humidité Taux pluie (/hr) Soleil
-17.8 °C -17.8 °C 0 hPa Calm     Humidity % 0 mm SolarRadiationWatts/m^2 W/m2 Conditions
00:00 -8.7 °C -9.7 °C 34395 hPa Calm   12.9 km/h 89 % 0 mm 0 W/m2
00:05 -8.7 °C -9.7 °C 34395 hPa Calm   5.1 km/h 89 % 0 mm 0 W/m2
00:10 -8.7 °C -9.6 °C 34395 hPa Calm   5.1 km/h 90 % 0 mm 0 W/m2
00:15 -8.8 °C -9.7 °C 34395 hPa Calm   7.7 km/h 90 % 0 mm 0 W/m2
00:20 -8.8 °C -9.7 °C 34395 hPa Calm   7.7 km/h 90 % 0 mm 0 W/m2
00:25 -8.8 °C -9.8 °C 34395 hPa Calm   5.1 km/h 90 % 0 mm 0 W/m2
00:30 -8.9 °C -9.7 °C 34395 hPa Calm   2.6 km/h 91 % 0 mm 0 W/m2
00:35 -8.9 °C -9.7 °C 34395 hPa Calm   7.7 km/h 91 % 0 mm 0 W/m2
00:40 -8.9 °C -9.7 °C 34395 hPa Calm   10.3 km/h 91 % 0 mm 0 W/m2
00:45 -8.9 °C -9.7 °C 34395 hPa Calm   10.3 km/h 91 % 0 mm 0 W/m2
00:50 -8.9 °C -9.7 °C 34395 hPa NE 2.6 km/h 15.6 km/h 91 % 0 mm 0 W/m2
00:55 -8.9 °C -9.7 °C 34395 hPa North 12.9 km/h 15.6 km/h 91 % 0 mm 0 W/m2
01:00 -8.9 °C -9.7 °C 34395 hPa Calm   20.8 km/h 91 % 0 mm 0 W/m2
01:05 -8.9 °C -9.7 °C 34395 hPa NE 10.3 km/h 20.8 km/h 91 % 0 mm 0 W/m2
01:10 -8.9 °C -9.7 °C 34395 hPa NE 10.3 km/h 18.2 km/h 91 % 0 mm 0 W/m2
01:15 -8.9 °C -9.7 °C 34395 hPa Calm   18.2 km/h 91 % 0 mm 0 W/m2
01:20 -8.9 °C -9.7 °C 34395 hPa ENE 10.3 km/h 20.8 km/h 91 % 0 mm 0 W/m2
01:25 -8.9 °C -9.8 °C 34395 hPa Calm   20.8 km/h 91 % 0 mm 0 W/m2
01:30 -9 °C -9.9 °C 34395 hPa Calm   15.6 km/h 90 % 0 mm 0 W/m2
01:35 -9 °C -9.9 °C 34395 hPa North 10.3 km/h 12.9 km/h 90 % 0 mm 0 W/m2
01:40 -9.1 °C -9.9 °C 34384.8 hPa NE 10.3 km/h 20.8 km/h 90 % 0 mm 0 W/m2
01:45 -9.1 °C -9.9 °C 34395 hPa NNE 7.7 km/h 20.8 km/h 91 % 0 mm 0 W/m2
01:50 -9.1 °C -9.9 °C 34395 hPa Calm   18.2 km/h 91 % 0 mm 0 W/m2
01:55 -9.2 °C -10.1 °C 34395 hPa Calm   10.3 km/h 90 % 0 mm 0 W/m2
02:00 -9.3 °C -10.2 °C 34395 hPa Calm   18.2 km/h 90 % 0 mm 0 W/m2
02:05 -9.3 °C -10.2 °C 34395 hPa Calm   18.2 km/h 91 % 0 mm 0 W/m2
02:10 -9.4 °C -10.2 °C 34395 hPa Calm   12.9 km/h 91 % 0 mm 0 W/m2
02:15 -9.5 °C -10.3 °C 34395 hPa Calm   12.9 km/h 91 % 0 mm 0 W/m2
02:20 -9.5 °C -10.2 °C 34395 hPa Calm   12.9 km/h 92 % 0 mm 0 W/m2
02:25 -9.6 °C -10.4 °C 34384.8 hPa Calm   12.9 km/h 91 % 0 mm 0 W/m2
02:30 -9.6 °C -10.3 °C 34384.8 hPa Calm   20.8 km/h 92 % 0 mm 0 W/m2
02:35 -9.6 °C -10.3 °C 34384.8 hPa NNE 7.7 km/h 20.8 km/h 92 % 0 mm 0 W/m2
02:40 -9.6 °C -10.3 °C 34384.8 hPa NNE 7.7 km/h 15.6 km/h 92 % 0 mm 0 W/m2
02:45 -9.6 °C -10.3 °C 34384.8 hPa Calm   15.6 km/h 92 % 0 mm 0 W/m2
02:50 -9.6 °C -10.3 °C 34395 hPa Calm   18.2 km/h 92 % 0 mm 0 W/m2
02:55 -9.7 °C -10.4 °C 34384.8 hPa Calm   18.2 km/h 92 % 0 mm 0 W/m2
03:00 -9.7 °C -10.4 °C 34384.8 hPa Calm   12.9 km/h 92 % 0 mm 0 W/m2
03:05 -9.8 °C -10.4 °C 34384.8 hPa Calm   12.9 km/h 92 % 0 mm 0 W/m2
03:10 -9.8 °C -10.5 °C 34384.8 hPa NE 2.6 km/h 15.6 km/h 92 % 0 mm 0 W/m2
03:15 -9.8 °C -10.5 °C 34384.8 hPa Calm   18.2 km/h 92 % 0 mm 0 W/m2
03:20 -9.9 °C -10.6 °C 34384.8 hPa Calm   18.2 km/h 92 % 0 mm 0 W/m2
03:25 -9.9 °C -10.6 °C 34384.8 hPa Calm   20.8 km/h 92 % 0 mm 0 W/m2
03:30 -9.9 °C -10.7 °C 34384.8 hPa Calm   20.8 km/h 92 % 0 mm 0 W/m2
03:35 -10 °C -10.7 °C 34371.3 hPa NE 2.6 km/h 23.3 km/h 92 % 0 mm 0 W/m2
03:40 -10.1 °C -10.7 °C 34384.8 hPa Calm   23.3 km/h 93 % 0 mm 0 W/m2
03:45 -10.1 °C -10.7 °C 34371.3 hPa ENE 10.3 km/h 20.8 km/h 93 % 0 mm 0 W/m2
03:50 -10.2 °C -10.8 °C 34371.3 hPa Calm   23.3 km/h 93 % 0 mm 0 W/m2
03:55 -10.2 °C -10.8 °C 34384.8 hPa NE 5.1 km/h 23.3 km/h 93 % 0 mm 0 W/m2
04:00 -10.2 °C -10.9 °C 34384.8 hPa Calm   20.8 km/h 93 % 0 mm 0 W/m2
04:05 -10.2 °C -10.9 °C 34384.8 hPa North 18.2 km/h 20.8 km/h 93 % 0 mm 0 W/m2
04:10 -10.3 °C -10.9 °C 34371.3 hPa Calm   20.8 km/h 93 % 0 mm 0 W/m2
04:15 -10.3 °C -10.9 °C 34384.8 hPa Calm   18.2 km/h 93 % 0 mm 0 W/m2
04:20 -10.4 °C -11 °C 34371.3 hPa Calm   18.2 km/h 93 % 0 mm 0 W/m2
04:25 -10.4 °C -11.1 °C 34384.8 hPa Calm   12.9 km/h 93 % 0 mm 0 W/m2
04:30 -10.5 °C -11.1 °C 34384.8 hPa Calm   12.9 km/h 93 % 0 mm 0 W/m2
04:35 -10.5 °C -11 °C 34384.8 hPa Calm   18.2 km/h 94 % 0 mm 0 W/m2
04:40 -10.5 °C -11.1 °C 34384.8 hPa Calm   25.9 km/h 94 % 0 mm 0 W/m2
04:45 -10.5 °C -11.1 °C 34371.3 hPa Calm   25.9 km/h 94 % 0 mm 0 W/m2
04:50 -10.5 °C -11.1 °C 34371.3 hPa NE 12.9 km/h 18.2 km/h 94 % 0 mm 0 W/m2
04:55 -10.6 °C -11.1 °C 34371.3 hPa Calm   18.2 km/h 94 % 0 mm 0 W/m2
05:00 -10.6 °C -11.1 °C 34371.3 hPa North 2.6 km/h 15.6 km/h 94 % 0 mm 0 W/m2
05:05 -10.6 °C -11.1 °C 34371.3 hPa Calm   18.2 km/h 94 % 0 mm 0 W/m2
05:10 -10.5 °C -11.1 °C 34371.3 hPa NNE 5.1 km/h 23.3 km/h 94 % 0 mm 0 W/m2
05:15 -10.5 °C -11.1 °C 34371.3 hPa ENE 7.7 km/h 23.3 km/h 94 % 0 mm 0 W/m2
05:20 -10.5 °C -11.1 °C 34371.3 hPa Calm   15.6 km/h 94 % 0 mm 0 W/m2
05:25 -10.5 °C -11.1 °C 34371.3 hPa Calm   10.3 km/h 94 % 0 mm 0 W/m2
05:30 -10.6 °C -11.1 °C 34371.3 hPa Calm   12.9 km/h 94 % 0 mm 0 W/m2
05:35 -10.6 °C -11.1 °C 34371.3 hPa NNE 2.6 km/h 23.3 km/h 94 % 0 mm 0 W/m2
05:40 -10.6 °C -11.2 °C 34371.3 hPa ENE 2.6 km/h 23.3 km/h 94 % 0 mm 0 W/m2
05:45 -10.7 °C -11.2 °C 34371.3 hPa North 2.6 km/h 20.8 km/h 94 % 0 mm 0 W/m2
05:50 -10.7 °C -11.2 °C 34371.3 hPa Calm   18.2 km/h 94 % 0 mm 0 W/m2
05:55 -10.7 °C -11.3 °C 34371.3 hPa NNW 2.6 km/h 18.2 km/h 94 % 0 mm 0 W/m2
06:00 -10.8 °C -11.3 °C 34371.3 hPa Calm   20.8 km/h 94 % 0 mm 0 W/m2
06:05 -10.8 °C -11.3 °C 34371.3 hPa North 12.9 km/h 20.8 km/h 94 % 0 mm 0 W/m2
06:10 -10.8 °C -11.2 °C 34371.3 hPa Calm   15.6 km/h 95 % 0 mm 0 W/m2
06:15 -10.8 °C -11.2 °C 34371.3 hPa NE 2.6 km/h 25.9 km/h 95 % 0 mm 0 W/m2
06:20 -10.7 °C -11.2 °C 34371.3 hPa NNE 5.1 km/h 25.9 km/h 95 % 0 mm 0 W/m2
06:25 -10.7 °C -11.2 °C 34371.3 hPa Calm   25.9 km/h 95 % 0 mm 0 W/m2
06:30 -10.7 °C -11.2 °C 34371.3 hPa Calm   18.2 km/h 95 % 0 mm 0 W/m2
06:35 -10.7 °C -11.1 °C 34371.3 hPa NE 18.2 km/h 25.9 km/h 95 % 0 mm 0 W/m2
06:40 -10.7 °C -11.1 °C 34371.3 hPa NW 2.6 km/h 25.9 km/h 95 % 0 mm 5 W/m2
06:45 -10.6 °C -11.1 °C 34371.3 hPa Calm   23.3 km/h 95 % 0 mm 5 W/m2
06:50 -10.6 °C -11 °C 34371.3 hPa NE 10.3 km/h 18.2 km/h 95 % 0 mm 7 W/m2
06:55 -10.6 °C -11 °C 34371.3 hPa Calm   18.2 km/h 95 % 0 mm 7 W/m2
07:00 -10.6 °C -11 °C 34384.8 hPa NE 5.1 km/h 23.3 km/h 95 % 0 mm 11 W/m2
07:05 -10.5 °C -10.9 °C 34384.8 hPa ENE 10.3 km/h 23.3 km/h 95 % 0 mm 12 W/m2
07:10 -10.5 °C -10.9 °C 34384.8 hPa Calm   20.8 km/h 96 % 0 mm 19 W/m2
07:15 -10.5 °C -10.9 °C 34384.8 hPa Calm   20.8 km/h 95 % 0 mm 21 W/m2
07:20 -10.4 °C -10.9 °C 34384.8 hPa NNE 7.7 km/h 25.9 km/h 95 % 0 mm 23 W/m2
07:25 -10.4 °C -10.9 °C 34384.8 hPa Calm   25.9 km/h 95 % 0 mm 25 W/m2
07:30 -10.4 °C -10.7 °C 34384.8 hPa East 5.1 km/h 20.8 km/h 96 % 0 mm 26 W/m2
07:35 -10.4 °C -10.7 °C 34384.8 hPa NE 12.9 km/h 23.3 km/h 96 % 0 mm 33 W/m2
07:40 -10.4 °C -10.7 °C 34384.8 hPa Calm   23.3 km/h 96 % 0 mm 28 W/m2
07:45 -10.3 °C -10.7 °C 34384.8 hPa Calm   25.9 km/h 96 % 0 mm 26 W/m2
07:50 -10.4 °C -10.7 °C 34384.8 hPa NE 15.6 km/h 31.1 km/h 96 % 0 mm 32 W/m2
07:55 -10.4 °C -10.7 °C 34384.8 hPa NE 23.3 km/h 31.1 km/h 96 % 0 mm 32 W/m2
08:00 -10.3 °C -10.7 °C 34384.8 hPa NE 12.9 km/h 23.3 km/h 96 % 0 mm 33 W/m2
08:05 -10.3 °C -10.8 °C 34384.8 hPa NNE 12.9 km/h 31.1 km/h 95 % 0 mm 46 W/m2
08:10 -10.3 °C -10.7 °C 34384.8 hPa East 5.1 km/h 31.1 km/h 96 % 0 mm 44 W/m2
08:15 -10.3 °C -10.6 °C 34395 hPa East 7.7 km/h 23.3 km/h 96 % 0 mm 58 W/m2
08:20 -10.2 °C -10.6 °C 34395 hPa NNE 7.7 km/h 23.3 km/h 96 % 0 mm 90 W/m2
08:25 -10.2 °C -10.6 °C 34384.8 hPa Calm   18.2 km/h 96 % 0 mm 62 W/m2
08:30 -10.1 °C -10.4 °C 34395 hPa NE 5.1 km/h 20.8 km/h 96 % 0 mm 63 W/m2
08:35 -10.1 °C -10.4 °C 34384.8 hPa NNE 15.6 km/h 20.8 km/h 96 % 0 mm 84 W/m2
08:40 -10.1 °C -10.6 °C 34395 hPa Calm   20.8 km/h 95 % 0 mm 84 W/m2
08:45 -10.1 °C -10.4 °C 34395 hPa North 5.1 km/h 20.8 km/h 95 % 0 mm 67 W/m2
08:50 -10.1 °C -10.5 °C 34395 hPa NE 12.9 km/h 20.8 km/h 95 % 0 mm 65 W/m2
08:55 -10.1 °C -10.4 °C 34395 hPa NNE 7.7 km/h 28.5 km/h 95 % 0 mm 91 W/m2
09:00 -10 °C -10.4 °C 34395 hPa NE 2.6 km/h 28.5 km/h 95 % 0 mm 100 W/m2
09:05 -9.9 °C -10.4 °C 34395 hPa Calm   25.9 km/h 95 % 0 mm 111 W/m2
09:10 -9.8 °C -10.3 °C 34384.8 hPa Calm   25.9 km/h 95 % 0 mm 97 W/m2
09:15 -9.8 °C -10.3 °C 34395 hPa NE 12.9 km/h 25.9 km/h 95 % 0 mm 163 W/m2
09:20 -9.8 °C -10.2 °C 34395 hPa NE 10.3 km/h 18.2 km/h 95 % 0 mm 156 W/m2
09:25 -9.7 °C -10.1 °C 34395 hPa NE 10.3 km/h 25.9 km/h 95 % 0 mm 146 W/m2
09:30 -9.6 °C -10.1 °C 34395 hPa NE 5.1 km/h 28.5 km/h 95 % 0 mm 111 W/m2
09:35 -9.7 °C -10.2 °C 34395 hPa NNE 12.9 km/h 28.5 km/h 94 % 0 mm 146 W/m2
09:40 -9.6 °C -10.1 °C 34395 hPa NE 23.3 km/h 25.9 km/h 94 % 0 mm 97 W/m2
09:45 -9.6 °C -10.1 °C 34395 hPa Calm   25.9 km/h 94 % 0 mm 139 W/m2
09:50 -9.6 °C -10.1 °C 34395 hPa Calm   28.5 km/h 94 % 0 mm 193 W/m2
09:55 -9.4 °C -9.9 °C 34395 hPa East 12.9 km/h 28.5 km/h 94 % 0 mm 195 W/m2
10:00 -9.3 °C -9.9 °C 34395 hPa Calm   28.5 km/h 93 % 0 mm 227 W/m2
10:05 -9.2 °C -9.8 °C 34395 hPa NNE 12.9 km/h 25.9 km/h 93 % 0 mm 160 W/m2
10:10 -9.3 °C -10 °C 34395 hPa NNE 2.6 km/h 25.9 km/h 92 % 0 mm 186 W/m2
10:15 -9.3 °C -10 °C 34395 hPa NE 10.3 km/h 25.9 km/h 92 % 0 mm 162 W/m2
10:20 -9.2 °C -9.9 °C 34395 hPa NNE 7.7 km/h 20.8 km/h 92 % 0 mm 197 W/m2
10:25 -9.1 °C -9.8 °C 34384.8 hPa Calm   23.3 km/h 92 % 0 mm 185 W/m2
10:30 -9.1 °C -9.8 °C 34395 hPa North 2.6 km/h 23.3 km/h 92 % 0 mm 213 W/m2
10:35 -9.1 °C -9.8 °C 34384.8 hPa NE 18.2 km/h 23.3 km/h 92 % 0 mm 209 W/m2
10:40 -9.1 °C -9.9 °C 34384.8 hPa North 7.7 km/h 25.9 km/h 91 % 0 mm 185 W/m2
10:45 -9.1 °C -9.8 °C 34384.8 hPa ENE 5.1 km/h 25.9 km/h 91 % 0 mm 244 W/m2
10:50 -8.8 °C -9.7 °C 34384.8 hPa East 18.2 km/h 28.5 km/h 91 % 0 mm 257 W/m2
10:55 -8.8 °C -9.7 °C 34384.8 hPa ENE 10.3 km/h 28.5 km/h 90 % 0 mm 209 W/m2
11:00 -8.8 °C -9.7 °C 34384.8 hPa NE 25.9 km/h 28.5 km/h 90 % 0 mm 288 W/m2
11:05 -8.7 °C -9.6 °C 34384.8 hPa Calm   25.9 km/h 90 % 0 mm 248 W/m2
11:10 -8.6 °C -9.5 °C 34384.8 hPa ENE 7.7 km/h 25.9 km/h 90 % 0 mm 327 W/m2
11:15 -8.6 °C -9.6 °C 34384.8 hPa ENE 7.7 km/h 25.9 km/h 89 % 0 mm 306 W/m2
11:20 -8.6 °C -9.6 °C 34384.8 hPa East 2.6 km/h 23.3 km/h 89 % 0 mm 230 W/m2
11:25 -8.5 °C -9.6 °C 34384.8 hPa East 18.2 km/h 25.9 km/h 88 % 0 mm 322 W/m2
11:30 -8.5 °C -9.6 °C 34384.8 hPa ENE 12.9 km/h 25.9 km/h 88 % 0 mm 253 W/m2
11:35 -8.5 °C -9.6 °C 34384.8 hPa ENE 23.3 km/h 25.9 km/h 88 % 0 mm 225 W/m2
11:40 -8.4 °C -9.6 °C 34371.3 hPa Calm   25.9 km/h 88 % 0 mm 276 W/m2
11:45 -8.4 °C -9.6 °C 34371.3 hPa ENE 2.6 km/h 23.3 km/h 88 % 0 mm 339 W/m2
11:50 -8.2 °C -9.3 °C 34384.8 hPa ENE 10.3 km/h 23.3 km/h 89 % 0 mm 341 W/m2
11:55 -8.2 °C -9.4 °C 34384.8 hPa ESE 5.1 km/h 23.3 km/h 87 % 0 mm 380 W/m2
12:00 -8.2 °C -9.4 °C 34384.8 hPa East 12.9 km/h 23.3 km/h 87 % 0 mm 332 W/m2
12:05 -8.2 °C -9.4 °C 34384.8 hPa Calm   23.3 km/h 87 % 0 mm 265 W/m2
12:10 -8.2 °C -9.4 °C 34384.8 hPa ESE 18.2 km/h 23.3 km/h 87 % 0 mm 221 W/m2
12:15 -8.2 °C -9.4 °C 34395 hPa Calm   23.3 km/h 87 % 0 mm 260 W/m2
12:20 -8.2 °C -9.4 °C 34395 hPa Calm   23.3 km/h 87 % 0 mm 234 W/m2
12:25 -8.2 °C -9.4 °C 34395 hPa Calm   20.8 km/h 87 % 0 mm 243 W/m2
12:30 -8.1 °C -9.3 °C 34395 hPa ESE 12.9 km/h 23.3 km/h 87 % 0 mm 200 W/m2
12:35 -8.2 °C -9.4 °C 34395 hPa SE 12.9 km/h 23.3 km/h 87 % 0 mm 236 W/m2
12:40 -8.1 °C -9.3 °C 34395 hPa ESE 10.3 km/h 23.3 km/h 87 % 0 mm 155 W/m2
12:45 -8.2 °C -9.4 °C 34395 hPa ESE 12.9 km/h 23.3 km/h 87 % 0 mm 137 W/m2
12:50 -8.2 °C -9.4 °C 34395 hPa East 12.9 km/h 23.3 km/h 87 % 0 mm 202 W/m2
12:55 -8.1 °C -9.2 °C 34395 hPa Calm   25.9 km/h 88 % 0 mm 258 W/m2
13:00 -8 °C -9.2 °C 34395 hPa ENE 2.6 km/h 25.9 km/h 87 % 0 mm 202 W/m2
13:05 -8 °C -9.2 °C 34395 hPa East 2.6 km/h 18.2 km/h 87 % 0 mm 251 W/m2
13:10 -7.9 °C -9.2 °C 34395 hPa Calm   15.6 km/h 87 % 0 mm 236 W/m2
13:15 -7.8 °C -9.1 °C 34395 hPa SE 2.6 km/h 15.6 km/h 87 % 0 mm 244 W/m2
13:20 -7.8 °C -9.1 °C 34395 hPa SE 12.9 km/h 18.2 km/h 87 % 0 mm 283 W/m2
13:25 -7.7 °C -8.9 °C 34395 hPa Calm   18.2 km/h 87 % 0 mm 346 W/m2
13:30 -7.6 °C -8.9 °C 34395 hPa East 5.1 km/h 15.6 km/h 86 % 0 mm 316 W/m2
13:35 -7.6 °C -9 °C 34395 hPa SE 12.9 km/h 15.6 km/h 85 % 0 mm 313 W/m2
13:40 -7.5 °C -8.8 °C 34384.8 hPa Calm   15.6 km/h 86 % 0 mm 371 W/m2
13:45 -7.4 °C -8.7 °C 34384.8 hPa Calm   15.6 km/h 86 % 0 mm 380 W/m2
13:50 -7.3 °C -8.7 °C 34384.8 hPa Calm   18.2 km/h 85 % 0 mm 316 W/m2
13:55 -7.3 °C -8.7 °C 34384.8 hPa Calm   18.2 km/h 85 % 0 mm 264 W/m2
14:00 -7.3 °C -8.7 °C 34384.8 hPa Calm   12.9 km/h 85 % 0 mm 230 W/m2
14:05 -7.3 °C -8.7 °C 34384.8 hPa Calm   12.9 km/h 85 % 0 mm 260 W/m2
14:10 -7.1 °C -8.4 °C 34384.8 hPa East 15.6 km/h 18.2 km/h 86 % 0 mm 350 W/m2
14:15 -7 °C -8.2 °C 34384.8 hPa Calm   18.2 km/h 87 % 0 mm 452 W/m2
14:20 -6.8 °C -8.2 °C 34384.8 hPa Calm   15.6 km/h 85 % 0 mm 450 W/m2
Avec l'autorisation de Weather Underground - 1.25 mb